Time,TemperatureF,DewpointF,PressureIn,WindDirection,WindDirectionDegrees,WindSpeedMPH,WindSpeedGustMPH,Humidity,HourlyPrecipIn,Conditions,Clouds,dailyrainin,SolarRadiationWatts/m^2,SoftwareType,DateUTC
2013-04-03 00:00:00,44.4,23.9,30.08,NW,317,0.0,6.0,44,0.00,,,0.00,0.0,meteohub,2013-04-03 04:00:00,
2013-04-03 00:02:00,44.4,23.4,30.08,North,5,3.0,6.0,43,0.00,,,0.00,0.0,meteohub,2013-04-03 04:02:00,
2013-04-03 00:03:00,44.4,23.4,30.07,ENE,59,0.0,6.0,43,0.00,,,0.00,0.0,meteohub,2013-04-03 04:03:00,
2013-04-03 00:08:00,44.2,23.2,30.07,NE,44,2.0,4.0,43,0.00,,,0.00,0.0,meteohub,2013-04-03 04:08:00,
2013-04-03 00:13:00,44.1,23.5,30.07,NE,44,1.0,4.0,44,0.00,,,0.00,0.0,meteohub,2013-04-03 04:13:00,
2013-04-03 00:18:00,43.9,23.4,30.08,ENE,61,2.0,5.0,44,0.00,,,0.00,0.0,meteohub,2013-04-03 04:18:00,
2013-04-03 00:24:00,43.7,23.2,30.08,NNE,27,5.0,5.0,44,0.00,,,0.00,0.0,meteohub,2013-04-03 04:24:00,
2013-04-03 00:29:00,43.5,23.0,30.08,WNW,292,0.0,5.0,44,0.00,,,0.00,0.0,meteohub,2013-04-03 04:29:00,
2013-04-03 00:34:00,43.5,24.1,30.08,NE,40,1.0,6.0,46,0.00,,,0.00,0.0,meteohub,2013-04-03 04:34:00,
2013-04-03 00:39:00,43.3,23.4,30.08,North,355,1.0,6.0,45,0.00,,,0.00,0.0,meteohub,2013-04-03 04:39:00,
2013-04-03 00:44:00,43.3,23.4,30.08,NE,38,0.0,6.0,45,0.00,,,0.00,0.0,meteohub,2013-04-03 04:44:00,
2013-04-03 00:49:00,43.3,23.9,30.09,East,101,2.0,5.0,46,0.00,,,0.00,0.0,meteohub,2013-04-03 04:49:00,
2013-04-03 00:54:00,43.2,24.3,30.09,SSE,164,2.0,5.0,47,0.00,,,0.00,0.0,meteohub,2013-04-03 04:54:00,
2013-04-03 00:59:00,43.2,24.8,30.10,ENE,69,1.0,6.0,48,0.00,,,0.00,0.0,meteohub,2013-04-03 04:59:00,
2013-04-03 01:04:00,43.2,24.8,30.10,ESE,109,1.0,6.0,48,0.00,,,0.00,0.0,meteohub,2013-04-03 05:04:00,
2013-04-03 01:09:00,43.2,25.7,30.10,ENE,70,0.0,6.0,50,0.00,,,0.00,0.0,meteohub,2013-04-03 05:09:00,
2013-04-03 01:14:00,43.2,25.3,30.10,North,5,0.0,6.0,49,0.00,,,0.00,0.0,meteohub,2013-04-03 05:14:00,
2013-04-03 01:19:00,43.2,25.7,30.10,East,86,0.0,3.0,50,0.00,,,0.00,0.0,meteohub,2013-04-03 05:19:00,
2013-04-03 01:24:00,43.2,26.2,30.10,East,86,0.0,2.0,51,0.00,,,0.00,0.0,meteohub,2013-04-03 05:24:00,
2013-04-03 01:30:00,43.2,25.7,30.10,East,86,0.0,2.0,50,0.00,,,0.00,0.0,meteohub,2013-04-03 05:30:00,
2013-04-03 01:35:00,43.0,25.7,30.10,NE,34,1.0,2.0,50,0.00,,,0.00,0.0,meteohub,2013-04-03 05:35:00,
2013-04-03 01:40:00,43.0,26.1,30.10,NE,46,0.0,3.0,51,0.00,,,0.00,0.0,meteohub,2013-04-03 05:40:00,
2013-04-03 01:45:00,43.0,26.1,30.10,NE,46,0.0,3.0,51,0.00,,,0.00,0.0,meteohub,2013-04-03 05:45:00,
2013-04-03 01:50:00,43.0,26.1,30.09,NE,46,0.0,3.0,51,0.00,,,0.00,0.0,meteohub,2013-04-03 05:50:00,
2013-04-03 01:55:00,42.8,25.9,30.09,NNW,338,1.0,5.0,51,0.00,,,0.00,0.0,meteohub,2013-04-03 05:55:00,
2013-04-03 02:00:00,42.6,25.3,30.09,North,11,1.0,5.0,50,0.00,,,0.00,0.0,meteohub,2013-04-03 06:00:00,
2013-04-03 02:05:00,42.6,25.3,30.09,NE,42,2.0,5.0,50,0.00,,,0.00,0.0,meteohub,2013-04-03 06:05:00,
2013-04-03 02:10:00,42.4,25.2,30.09,North,9,1.0,6.0,50,0.00,,,0.00,0.0,meteohub,2013-04-03 06:10:00,
2013-04-03 02:15:00,42.3,25.0,30.09,WNW,284,5.0,6.0,50,0.00,,,0.00,0.0,meteohub,2013-04-03 06:15:00,
2013-04-03 02:20:00,42.3,25.0,30.09,NW,305,2.0,7.0,50,0.00,,,0.00,0.0,meteohub,2013-04-03 06:20:00,
2013-04-03 02:25:00,42.1,25.3,30.08,NW,309,1.0,7.0,51,0.00,,,0.00,0.0,meteohub,2013-04-03 06:25:00,
2013-04-03 02:30:00,42.1,25.3,30.07,NW,313,3.0,7.0,51,0.00,,,0.00,0.0,meteohub,2013-04-03 06:30:00,
2013-04-03 02:35:00,42.1,25.3,30.07,North,5,3.0,5.0,51,0.00,,,0.00,0.0,meteohub,2013-04-03 06:35:00,
2013-04-03 02:41:00,41.9,25.5,30.08,North,9,2.0,5.0,52,0.00,,,0.00,0.0,meteohub,2013-04-03 06:41:00,
2013-04-03 02:45:00,41.9,25.2,30.08,NW,317,0.0,4.0,51,0.00,,,0.00,0.0,meteohub,2013-04-03 06:45:00,
2013-04-03 02:51:00,41.9,25.2,30.08,NW,315,0.0,4.0,51,0.00,,,0.00,0.0,meteohub,2013-04-03 06:51:00,
2013-04-03 02:56:00,41.9,25.5,30.08,NNW,344,1.0,3.0,52,0.00,,,0.00,0.0,meteohub,2013-04-03 06:56:00,
2013-04-03 03:01:00,41.7,25.0,30.08,SE,127,0.0,3.0,51,0.00,,,0.00,0.0,meteohub,2013-04-03 07:01:00,
2013-04-03 03:06:00,41.7,25.0,30.08,ESE,119,3.0,3.0,51,0.00,,,0.00,0.0,meteohub,2013-04-03 07:06:00,
2013-04-03 03:12:00,41.5,24.8,30.08,SE,145,1.0,4.0,51,0.00,,,0.00,0.0,meteohub,2013-04-03 07:12:00,
2013-04-03 03:17:00,41.5,24.8,30.08,SE,145,2.0,4.0,51,0.00,,,0.00,0.0,meteohub,2013-04-03 07:17:00,
2013-04-03 03:22:00,41.5,24.8,30.08,SE,145,0.0,4.0,51,0.00,,,0.00,0.0,meteohub,2013-04-03 07:22:00,
2013-04-03 03:27:00,41.5,24.3,30.09,SE,146,0.0,4.0,50,0.00,,,0.00,0.0,meteohub,2013-04-03 07:27:00,
2013-04-03 03:32:00,41.5,23.7,30.08,SE,146,0.0,3.0,49,0.00,,,0.00,0.0,meteohub,2013-04-03 07:32:00,
2013-04-03 03:37:00,41.4,23.7,30.08,SE,146,0.0,3.0,49,0.00,,,0.00,0.0,meteohub,2013-04-03 07:37:00,
2013-04-03 03:42:00,41.4,23.7,30.08,SE,146,0.0,3.0,49,0.00,,,0.00,0.0,meteohub,2013-04-03 07:42:00,
2013-04-03 03:47:00,41.4,23.7,30.08,SE,146,0.0,2.0,49,0.00,,,0.00,0.0,meteohub,2013-04-03 07:47:00,
2013-04-03 03:52:00,41.2,23.9,30.08,SE,146,1.0,1.0,50,0.00,,,0.00,0.0,meteohub,2013-04-03 07:52:00,
2013-04-03 03:57:00,41.0,23.7,30.08,South,171,2.0,2.0,50,0.00,,,0.00,0.0,meteohub,2013-04-03 07:57:00,
2013-04-03 04:02:00,40.8,23.5,30.08,South,171,1.0,2.0,50,0.00,,,0.00,0.0,meteohub,2013-04-03 08:02:00,
2013-04-03 04:08:00,40.8,24.1,30.08,South,171,0.0,2.0,51,0.00,,,0.00,0.0,meteohub,2013-04-03 08:08:00,
2013-04-03 04:13:00,40.6,23.5,30.08,South,171,0.0,2.0,50,0.00,,,0.00,0.0,meteohub,2013-04-03 08:13:00,
2013-04-03 04:18:00,40.6,23.5,30.08,South,171,1.0,2.0,50,0.00,,,0.00,0.0,meteohub,2013-04-03 08:18:00,
2013-04-03 04:23:00,40.6,23.9,30.08,South,171,0.0,2.0,51,0.00,,,0.00,0.0,meteohub,2013-04-03 08:23:00,
2013-04-03 04:28:00,40.6,23.9,30.07,South,171,0.0,2.0,51,0.00,,,0.00,0.0,meteohub,2013-04-03 08:28:00,
2013-04-03 04:33:00,40.5,23.7,30.07,South,171,1.0,2.0,51,0.00,,,0.00,0.0,meteohub,2013-04-03 08:33:00,
2013-04-03 04:38:00,40.5,23.7,30.07,South,171,0.0,2.0,51,0.00,,,0.00,0.0,meteohub,2013-04-03 08:38:00,
2013-04-03 04:43:00,40.3,23.2,30.08,South,171,0.0,2.0,50,0.00,,,0.00,0.0,meteohub,2013-04-03 08:43:00,
2013-04-03 04:48:00,40.3,23.2,30.07,South,171,0.0,1.0,50,0.00,,,0.00,0.0,meteohub,2013-04-03 08:48:00,
2013-04-03 04:53:00,40.3,23.5,30.06,South,171,0.0,1.0,51,0.00,,,0.00,0.0,meteohub,2013-04-03 08:53:00,
2013-04-03 04:58:00,39.9,23.2,30.06,South,171,0.0,1.0,51,0.00,,,0.00,0.0,meteohub,2013-04-03 08:58:00,
2013-04-03 05:03:00,39.7,22.6,30.07,South,171,0.0,3.0,50,0.00,,,0.00,0.0,meteohub,2013-04-03 09:03:00,
2013-04-03 05:08:00,39.7,23.2,30.07,South,171,0.0,3.0,51,0.00,,,0.00,0.0,meteohub,2013-04-03 09:08:00,
2013-04-03 05:13:00,39.6,23.0,30.06,South,171,0.0,3.0,51,0.00,,,0.00,0.0,meteohub,2013-04-03 09:13:00,
2013-04-03 05:18:00,39.4,23.7,30.07,South,171,0.0,2.0,53,0.00,,,0.00,0.0,meteohub,2013-04-03 09:18:00,
2013-04-03 05:23:00,39.2,23.9,30.07,South,171,0.0,1.0,54,0.00,,,0.00,0.0,meteohub,2013-04-03 09:23:00,
2013-04-03 05:29:00,38.8,23.2,30.07,South,171,0.0,1.0,53,0.00,,,0.00,0.0,meteohub,2013-04-03 09:29:00,
2013-04-03 05:34:00,38.7,23.9,30.08,South,171,0.0,1.0,55,0.00,,,0.00,0.0,meteohub,2013-04-03 09:34:00,
2013-04-03 05:39:00,38.5,23.7,30.08,South,171,0.0,0.0,55,0.00,,,0.00,0.0,meteohub,2013-04-03 09:39:00,
2013-04-03 05:44:00,38.1,23.4,30.08,South,171,0.0,0.0,55,0.00,,,0.00,0.0,meteohub,2013-04-03 09:44:00,
2013-04-03 05:49:00,37.9,22.8,30.09,South,171,0.0,1.0,54,0.00,,,0.00,0.0,meteohub,2013-04-03 09:49:00,
2013-04-03 05:54:00,37.9,22.8,30.09,South,171,0.0,1.0,54,0.00,,,0.00,0.0,meteohub,2013-04-03 09:54:00,
2013-04-03 05:59:00,37.8,22.1,30.09,South,171,1.0,2.0,53,0.00,,,0.00,0.0,meteohub,2013-04-03 09:59:00,
2013-04-03 06:04:00,37.8,22.1,30.09,South,171,1.0,2.0,53,0.00,,,0.00,0.0,meteohub,2013-04-03 10:04:00,
2013-04-03 06:09:00,37.8,21.2,30.09,South,171,0.0,2.0,51,0.00,,,0.00,0.0,meteohub,2013-04-03 10:09:00,
2013-04-03 06:14:00,37.8,21.7,30.09,South,171,0.0,2.0,52,0.00,,,0.00,0.0,meteohub,2013-04-03 10:14:00,
2013-04-03 06:19:00,37.6,21.0,30.10,South,171,0.0,2.0,51,0.00,,,0.00,0.0,meteohub,2013-04-03 10:19:00,
2013-04-03 06:24:00,37.6,20.7,30.10,ESE,114,1.0,2.0,50,0.00,,,0.00,0.0,meteohub,2013-04-03 10:24:00,
2013-04-03 06:29:00,37.6,21.0,30.11,ESE,115,0.0,2.0,51,0.00,,,0.00,0.0,meteohub,2013-04-03 10:29:00,
2013-04-03 06:34:00,37.6,21.0,30.11,ESE,114,0.0,2.0,51,0.00,,,0.00,0.0,meteohub,2013-04-03 10:34:00,
2013-04-03 06:39:00,37.6,21.0,30.10,ESE,114,0.0,3.0,51,0.00,,,0.00,0.0,meteohub,2013-04-03 10:39:00,
2013-04-03 06:44:00,37.6,21.9,30.11,ESE,114,0.0,3.0,53,0.00,,,0.00,0.0,meteohub,2013-04-03 10:44:00,
2013-04-03 06:50:00,37.6,21.9,30.11,ESE,114,0.0,3.0,53,0.00,,,0.00,0.0,meteohub,2013-04-03 10:50:00,
2013-04-03 06:55:00,37.6,22.5,30.11,ESE,115,0.0,1.0,54,0.00,,,0.00,0.0,meteohub,2013-04-03 10:55:00,
2013-04-03 07:00:00,37.6,22.8,30.11,ESE,115,0.0,1.0,55,0.00,,,0.00,0.0,meteohub,2013-04-03 11:00:00,
2013-04-03 07:05:00,37.6,21.6,30.12,ESE,114,0.0,2.0,52,0.00,,,0.00,0.0,meteohub,2013-04-03 11:05:00,
2013-04-03 07:10:00,37.4,20.8,30.12,ESE,114,1.0,2.0,51,0.00,,,0.00,0.0,meteohub,2013-04-03 11:10:00,
2013-04-03 07:15:00,37.6,21.6,30.12,ESE,115,0.0,1.0,52,0.00,,,0.00,0.0,meteohub,2013-04-03 11:15:00,
2013-04-03 07:20:00,37.4,21.9,30.12,ESE,115,0.0,2.0,53,0.00,,,0.00,0.0,meteohub,2013-04-03 11:20:00,
2013-04-03 07:25:00,37.4,21.4,30.13,ESE,114,0.0,2.0,52,0.00,,,0.00,7.0,meteohub,2013-04-03 11:25:00,
2013-04-03 07:30:00,37.4,20.8,30.14,ESE,114,0.0,2.0,51,0.00,,,0.00,7.0,meteohub,2013-04-03 11:30:00,
2013-04-03 07:35:00,37.4,20.8,30.14,ESE,115,1.0,1.0,51,0.00,,,0.00,11.0,meteohub,2013-04-03 11:35:00,
2013-04-03 07:40:00,37.4,21.4,30.14,ESE,115,0.0,2.0,52,0.00,,,0.00,18.0,meteohub,2013-04-03 11:40:00,
2013-04-03 07:45:00,37.4,21.4,30.14,ESE,115,0.0,2.0,52,0.00,,,0.00,23.0,meteohub,2013-04-03 11:45:00,
2013-04-03 07:50:00,37.4,20.8,30.14,ESE,115,1.0,2.0,51,0.00,,,0.00,30.0,meteohub,2013-04-03 11:50:00,
2013-04-03 07:56:00,37.4,20.5,30.15,ESE,115,0.0,2.0,50,0.00,,,0.00,35.0,meteohub,2013-04-03 11:56:00,
2013-04-03 08:01:00,37.6,21.0,30.15,ESE,114,0.0,1.0,51,0.00,,,0.00,37.0,meteohub,2013-04-03 12:01:00,
2013-04-03 08:06:00,37.6,21.6,30.16,ESE,115,0.0,1.0,52,0.00,,,0.00,49.0,meteohub,2013-04-03 12:06:00,
2013-04-03 08:11:00,37.8,20.8,30.16,SSE,168,2.0,2.0,50,0.00,,,0.00,46.0,meteohub,2013-04-03 12:11:00,
2013-04-03 08:16:00,37.8,19.8,30.16,SSE,168,0.0,3.0,48,0.00,,,0.00,49.0,meteohub,2013-04-03 12:16:00,
2013-04-03 08:21:00,37.9,20.5,30.16,SSE,167,3.0,3.0,49,0.00,,,0.00,53.0,meteohub,2013-04-03 12:21:00,
2013-04-03 08:27:00,37.9,19.9,30.16,SSE,167,0.0,3.0,48,0.00,,,0.00,54.0,meteohub,2013-04-03 12:27:00,
2013-04-03 08:32:00,38.1,19.6,30.16,SSE,167,0.0,3.0,47,0.00,,,0.00,54.0,meteohub,2013-04-03 12:32:00,
2013-04-03 08:37:00,38.1,19.6,30.17,SSE,167,0.0,3.0,47,0.00,,,0.00,62.0,meteohub,2013-04-03 12:37:00,
2013-04-03 08:42:00,38.3,20.8,30.17,SSE,167,0.0,3.0,49,0.00,,,0.00,65.0,meteohub,2013-04-03 12:42:00,
2013-04-03 08:47:00,38.5,19.9,30.17,SSE,166,1.0,3.0,47,0.00,,,0.00,81.0,meteohub,2013-04-03 12:47:00,
2013-04-03 08:52:00,38.5,20.5,30.16,SW,229,0.0,3.0,48,0.00,,,0.00,109.0,meteohub,2013-04-03 12:52:00,
2013-04-03 08:57:00,38.7,20.7,30.16,SW,230,0.0,3.0,48,0.00,,,0.00,86.0,meteohub,2013-04-03 12:57:00,
2013-04-03 09:02:00,38.8,20.3,30.16,SE,129,1.0,3.0,47,0.00,,,0.00,81.0,meteohub,2013-04-03 13:02:00,
2013-04-03 09:07:00,39.0,20.5,30.16,ESE,117,2.0,4.0,47,0.00,,,0.00,93.0,meteohub,2013-04-03 13:07:00,
2013-04-03 09:12:00,39.0,19.9,30.16,ESE,107,1.0,4.0,46,0.00,,,0.00,100.0,meteohub,2013-04-03 13:12:00,
2013-04-03 09:17:00,39.0,20.5,30.16,ESE,120,0.0,4.0,47,0.00,,,0.00,137.0,meteohub,2013-04-03 13:17:00,
2013-04-03 09:22:00,39.4,21.4,30.15,SSE,161,1.0,3.0,48,0.00,,,0.00,181.0,meteohub,2013-04-03 13:22:00,
2013-04-03 09:27:00,39.7,21.7,30.15,SW,226,0.0,3.0,48,0.00,,,0.00,248.0,meteohub,2013-04-03 13:27:00,
2013-04-03 09:32:00,40.3,21.7,30.15,SE,138,3.0,4.0,47,0.00,,,0.00,302.0,meteohub,2013-04-03 13:32:00,
2013-04-03 09:37:00,40.6,21.9,30.15,ENE,77,4.0,4.0,47,0.00,,,0.00,316.0,meteohub,2013-04-03 13:37:00,
2013-04-03 09:42:00,41.0,21.2,30.15,SSE,165,4.0,5.0,45,0.00,,,0.00,390.0,meteohub,2013-04-03 13:42:00,
2013-04-03 09:47:00,41.4,22.1,30.15,NE,51,3.0,5.0,46,0.00,,,0.00,459.0,meteohub,2013-04-03 13:47:00,
2013-04-03 09:52:00,41.9,21.6,30.15,ESE,118,2.0,6.0,44,0.00,,,0.00,431.0,meteohub,2013-04-03 13:52:00,
2013-04-03 09:57:00,42.3,21.4,30.16,ESE,123,3.0,6.0,43,0.00,,,0.00,369.0,meteohub,2013-04-03 13:57:00,
2013-04-03 10:02:00,42.4,21.6,30.16,North,355,2.0,5.0,43,0.00,,,0.00,229.0,meteohub,2013-04-03 14:02:00,
2013-04-03 10:07:00,42.6,22.8,30.16,WSW,248,3.0,5.0,45,0.00,,,0.00,236.0,meteohub,2013-04-03 14:07:00,
2013-04-03 10:12:00,43.3,22.8,30.16,SE,144,1.0,5.0,44,0.00,,,0.00,438.0,meteohub,2013-04-03 14:12:00,
2013-04-03 10:17:00,44.1,21.9,30.16,East,100,1.0,5.0,41,0.00,,,0.00,483.0,meteohub,2013-04-03 14:17:00,
2013-04-03 10:22:00,45.0,22.1,30.16,SSW,200,3.0,5.0,40,0.00,,,0.00,483.0,meteohub,2013-04-03 14:22:00,
2013-04-03 10:27:00,45.7,22.1,30.16,South,173,2.0,6.0,39,0.00,,,0.00,506.0,meteohub,2013-04-03 14:27:00,
2013-04-03 10:32:00,45.7,21.6,30.16,South,190,6.0,6.0,38,0.00,,,0.00,545.0,meteohub,2013-04-03 14:32:00,
2013-04-03 10:37:00,46.0,21.2,30.16,South,169,3.0,7.0,37,0.00,,,0.00,547.0,meteohub,2013-04-03 14:37:00,
2013-04-03 10:42:00,46.2,20.7,30.16,South,178,2.0,8.0,36,0.00,,,0.00,548.0,meteohub,2013-04-03 14:42:00,
2013-04-03 10:48:00,46.8,23.2,30.16,South,178,0.0,8.0,39,0.00,,,0.00,554.0,meteohub,2013-04-03 14:48:00,
2013-04-03 10:53:00,47.5,23.2,30.17,SW,230,1.0,8.0,38,0.00,,,0.00,596.0,meteohub,2013-04-03 14:53:00,
2013-04-03 10:58:00,47.8,24.1,30.17,South,184,6.0,7.0,39,0.00,,,0.00,628.0,meteohub,2013-04-03 14:58:00,
2013-04-03 11:03:00,48.2,21.2,30.17,SE,146,3.0,7.0,34,0.00,,,0.00,629.0,meteohub,2013-04-03 15:03:00,
2013-04-03 11:08:00,48.0,21.7,30.17,ENE,78,0.0,8.0,35,0.00,,,0.00,631.0,meteohub,2013-04-03 15:08:00,
2013-04-03 11:13:00,47.8,21.6,30.17,NE,52,1.0,8.0,35,0.00,,,0.00,647.0,meteohub,2013-04-03 15:13:00,
2013-04-03 11:18:00,48.4,22.6,30.17,South,173,4.0,8.0,36,0.00,,,0.00,670.0,meteohub,2013-04-03 15:18:00,
2013-04-03 11:23:00,48.6,23.5,30.18,ESE,102,2.0,6.0,37,0.00,,,0.00,668.0,meteohub,2013-04-03 15:23:00,
2013-04-03 11:28:00,48.7,21.6,30.18,North,11,2.0,6.0,34,0.00,,,0.00,770.0,meteohub,2013-04-03 15:28:00,
2013-04-03 11:33:00,49.1,23.4,30.18,South,184,0.0,6.0,36,0.00,,,0.00,631.0,meteohub,2013-04-03 15:33:00,
2013-04-03 11:38:00,49.6,23.2,30.18,SE,145,3.0,5.0,35,0.00,,,0.00,737.0,meteohub,2013-04-03 15:38:00,
2013-04-03 11:43:00,49.6,23.7,30.18,SSE,148,3.0,6.0,36,0.00,,,0.00,633.0,meteohub,2013-04-03 15:43:00,
2013-04-03 11:48:00,50.2,24.3,30.18,SSE,163,2.0,6.0,36,0.00,,,0.00,798.0,meteohub,2013-04-03 15:48:00,
2013-04-03 11:53:00,50.9,25.5,30.17,WSW,242,3.0,6.0,37,0.00,,,0.00,844.0,meteohub,2013-04-03 15:53:00,
2013-04-03 11:58:00,52.2,26.1,30.17,SE,131,3.0,6.0,36,0.00,,,0.00,882.0,meteohub,2013-04-03 15:58:00,
2013-04-03 12:03:00,52.3,24.1,30.18,West,265,3.0,5.0,33,0.00,,,0.00,694.0,meteohub,2013-04-03 16:03:00,
2013-04-03 12:10:00,52.5,25.7,30.17,SSE,160,1.0,6.0,35,0.00,,,0.00,867.0,meteohub,2013-04-03 16:10:00,
2013-04-03 12:15:00,53.1,23.9,30.18,SSW,211,2.0,8.0,32,0.00,,,0.00,740.0,meteohub,2013-04-03 16:15:00,
2013-04-03 12:20:00,53.2,22.6,30.18,South,171,3.0,8.0,30,0.00,,,0.00,788.0,meteohub,2013-04-03 16:20:00,
2013-04-03 12:25:00,53.2,23.4,30.17,SSE,150,2.0,8.0,31,0.00,,,0.00,779.0,meteohub,2013-04-03 16:25:00,
2013-04-03 12:30:00,53.2,24.1,30.17,SSE,166,1.0,5.0,32,0.00,,,0.00,809.0,meteohub,2013-04-03 16:30:00,
2013-04-03 12:35:00,53.4,22.8,30.17,SW,236,5.0,7.0,30,0.00,,,0.00,765.0,meteohub,2013-04-03 16:35:00,
2013-04-03 12:40:00,53.1,21.6,30.17,SE,136,1.0,8.0,29,0.00,,,0.00,740.0,meteohub,2013-04-03 16:40:00,
2013-04-03 12:46:00,52.9,23.0,30.17,SSE,167,1.0,8.0,31,0.00,,,0.00,765.0,meteohub,2013-04-03 16:46:00,
2013-04-03 12:51:00,53.2,22.6,30.17,WNW,294,2.0,7.0,30,0.00,,,0.00,763.0,meteohub,2013-04-03 16:51:00,
2013-04-03 12:56:00,53.2,24.1,30.17,SSW,192,2.0,6.0,32,0.00,,,0.00,772.0,meteohub,2013-04-03 16:56:00,
2013-04-03 13:01:00,53.8,25.3,30.16,SE,144,1.0,4.0,33,0.00,,,0.00,759.0,meteohub,2013-04-03 17:01:00,
2013-04-03 13:06:00,54.1,26.4,30.16,ESE,115,2.0,5.0,34,0.00,,,0.00,735.0,meteohub,2013-04-03 17:06:00,
2013-04-03 13:11:00,54.5,26.8,30.17,South,185,3.0,5.0,34,0.00,,,0.00,745.0,meteohub,2013-04-03 17:11:00,
2013-04-03 13:17:00,55.2,22.6,30.16,South,190,1.0,6.0,28,0.00,,,0.00,803.0,meteohub,2013-04-03 17:17:00,
2013-04-03 13:22:00,54.9,23.2,30.16,NNW,342,1.0,6.0,29,0.00,,,0.00,773.0,meteohub,2013-04-03 17:22:00,
2013-04-03 13:27:00,54.9,25.5,30.16,WSW,241,3.0,6.0,32,0.00,,,0.00,673.0,meteohub,2013-04-03 17:27:00,
2013-04-03 13:32:00,55.2,24.3,30.16,SSE,158,5.0,6.0,30,0.00,,,0.00,745.0,meteohub,2013-04-03 17:32:00,
2013-04-03 13:37:00,54.9,24.1,30.15,East,82,3.0,7.0,30,0.00,,,0.00,649.0,meteohub,2013-04-03 17:37:00,
2013-04-03 13:42:00,54.0,25.5,30.15,East,89,1.0,7.0,33,0.00,,,0.00,696.0,meteohub,2013-04-03 17:42:00,
2013-04-03 13:47:00,54.7,26.8,30.15,ESE,123,3.0,7.0,34,0.00,,,0.00,726.0,meteohub,2013-04-03 17:47:00,
2013-04-03 13:52:00,55.0,25.7,30.15,SSW,203,2.0,6.0,32,0.00,,,0.00,664.0,meteohub,2013-04-03 17:52:00,
2013-04-03 13:57:00,55.6,27.7,30.14,South,178,3.0,6.0,34,0.00,,,0.00,631.0,meteohub,2013-04-03 17:57:00,
2013-04-03 14:02:00,55.8,25.5,30.14,SE,144,2.0,6.0,31,0.00,,,0.00,724.0,meteohub,2013-04-03 18:02:00,
2013-04-03 14:07:00,56.5,27.0,30.14,South,189,1.0,6.0,32,0.00,,,0.00,693.0,meteohub,2013-04-03 18:07:00,
2013-04-03 14:12:00,55.8,24.8,30.14,SE,128,2.0,6.0,30,0.00,,,0.00,635.0,meteohub,2013-04-03 18:12:00,
2013-04-03 14:17:00,55.6,27.7,30.14,SSE,151,2.0,7.0,34,0.00,,,0.00,649.0,meteohub,2013-04-03 18:17:00,
2013-04-03 14:22:00,56.1,25.9,30.14,SSW,198,3.0,7.0,31,0.00,,,0.00,670.0,meteohub,2013-04-03 18:22:00,
2013-04-03 14:27:00,56.5,27.0,30.14,SW,232,3.0,5.0,32,0.00,,,0.00,647.0,meteohub,2013-04-03 18:27:00,
2013-04-03 14:32:00,56.5,25.3,30.15,SSW,213,3.0,6.0,30,0.00,,,0.00,587.0,meteohub,2013-04-03 18:32:00,
2013-04-03 14:37:00,56.8,26.6,30.15,West,265,5.0,6.0,31,0.00,,,0.00,554.0,meteohub,2013-04-03 18:37:00,
2013-04-03 14:42:00,56.7,27.1,30.15,SE,132,1.0,7.0,32,0.00,,,0.00,543.0,meteohub,2013-04-03 18:42:00,
2013-04-03 14:47:00,56.1,25.9,30.15,East,95,2.0,7.0,31,0.00,,,0.00,492.0,meteohub,2013-04-03 18:47:00,
2013-04-03 14:53:00,55.6,24.6,30.15,SSE,147,3.0,7.0,30,0.00,,,0.00,489.0,meteohub,2013-04-03 18:53:00,
2013-04-03 14:58:00,55.8,25.5,30.15,SW,217,2.0,6.0,31,0.00,,,0.00,513.0,meteohub,2013-04-03 18:58:00,
2013-04-03 15:03:00,55.8,24.8,30.15,ESE,120,1.0,6.0,30,0.00,,,0.00,496.0,meteohub,2013-04-03 19:03:00,
2013-04-03 15:09:00,55.6,25.3,30.15,SSE,156,3.0,5.0,31,0.00,,,0.00,468.0,meteohub,2013-04-03 19:09:00,
2013-04-03 15:14:00,55.4,24.4,30.15,WSW,257,2.0,6.0,30,0.00,,,0.00,448.0,meteohub,2013-04-03 19:14:00,
2013-04-03 15:19:00,55.6,26.2,30.15,South,175,4.0,7.0,32,0.00,,,0.00,464.0,meteohub,2013-04-03 19:19:00,
2013-04-03 15:24:00,55.0,24.1,30.15,ESE,122,1.0,7.0,30,0.00,,,0.00,418.0,meteohub,2013-04-03 19:24:00,
2013-04-03 15:29:00,55.0,26.4,30.15,SSW,196,1.0,7.0,33,0.00,,,0.00,432.0,meteohub,2013-04-03 19:29:00,
2013-04-03 15:35:00,54.9,24.8,30.15,West,268,4.0,6.0,31,0.00,,,0.00,429.0,meteohub,2013-04-03 19:35:00,
2013-04-03 15:40:00,55.0,26.4,30.15,ESE,121,2.0,6.0,33,0.00,,,0.00,388.0,meteohub,2013-04-03 19:40:00,
2013-04-03 15:45:00,55.0,24.1,30.15,SW,226,2.0,5.0,30,0.00,,,0.00,378.0,meteohub,2013-04-03 19:45:00,
2013-04-03 15:50:00,55.0,26.4,30.15,SSE,159,0.0,6.0,33,0.00,,,0.00,350.0,meteohub,2013-04-03 19:50:00,
2013-04-03 15:55:00,55.0,26.4,30.15,SSE,157,2.0,6.0,33,0.00,,,0.00,338.0,meteohub,2013-04-03 19:55:00,
2013-04-03 16:00:00,55.0,25.0,30.15,SSW,199,2.0,6.0,31,0.00,,,0.00,322.0,meteohub,2013-04-03 20:00:00,
2013-04-03 16:05:00,54.5,25.2,30.15,South,169,1.0,6.0,32,0.00,,,0.00,306.0,meteohub,2013-04-03 20:05:00,
2013-04-03 16:10:00,54.5,27.3,30.15,South,176,3.0,6.0,35,0.00,,,0.00,294.0,meteohub,2013-04-03 20:10:00,
2013-04-03 16:15:00,54.3,24.3,30.15,SSE,166,1.0,6.0,31,0.00,,,0.00,279.0,meteohub,2013-04-03 20:15:00,
2013-04-03 16:20:00,54.3,25.2,30.15,West,261,3.0,4.0,32,0.00,,,0.00,271.0,meteohub,2013-04-03 20:20:00,
2013-04-03 16:26:00,54.3,25.9,30.15,West,261,0.0,4.0,33,0.00,,,0.00,251.0,meteohub,2013-04-03 20:26:00,
2013-04-03 16:31:00,54.5,26.8,30.15,SSE,167,2.0,4.0,34,0.00,,,0.00,244.0,meteohub,2013-04-03 20:31:00,
2013-04-03 16:36:00,54.7,26.8,30.15,SSE,166,2.0,4.0,34,0.00,,,0.00,248.0,meteohub,2013-04-03 20:36:00,
2013-04-03 16:41:00,54.3,25.9,30.15,SSE,153,4.0,4.0,33,0.00,,,0.00,258.0,meteohub,2013-04-03 20:41:00,
2013-04-03 16:46:00,54.1,27.1,30.14,South,170,2.0,4.0,35,0.00,,,0.00,257.0,meteohub,2013-04-03 20:46:00,
2013-04-03 16:51:00,54.1,27.1,30.14,SSE,165,2.0,5.0,35,0.00,,,0.00,257.0,meteohub,2013-04-03 20:51:00,
2013-04-03 16:56:00,54.1,26.4,30.14,SW,229,2.0,5.0,34,0.00,,,0.00,243.0,meteohub,2013-04-03 20:56:00,
2013-04-03 17:02:00,54.0,26.2,30.15,SSE,148,1.0,5.0,34,0.00,,,0.00,241.0,meteohub,2013-04-03 21:02:00,
2013-04-03 17:07:00,54.0,27.7,30.15,SW,225,4.0,4.0,36,0.00,,,0.00,229.0,meteohub,2013-04-03 21:07:00,
2013-04-03 17:12:00,53.8,27.5,30.15,South,179,1.0,4.0,36,0.00,,,0.00,207.0,meteohub,2013-04-03 21:12:00,
2013-04-03 17:17:00,53.6,25.9,30.15,SW,221,1.0,4.0,34,0.00,,,0.00,200.0,meteohub,2013-04-03 21:17:00,
2013-04-03 17:22:00,53.4,26.4,30.15,South,180,1.0,4.0,35,0.00,,,0.00,185.0,meteohub,2013-04-03 21:22:00,
2013-04-03 17:27:00,53.2,26.2,30.15,South,176,0.0,4.0,35,0.00,,,0.00,176.0,meteohub,2013-04-03 21:27:00,
2013-04-03 17:32:00,53.2,27.0,30.15,South,175,2.0,4.0,36,0.00,,,0.00,171.0,meteohub,2013-04-03 21:32:00,
2013-04-03 17:37:00,53.1,28.0,30.15,South,190,1.0,4.0,38,0.00,,,0.00,162.0,meteohub,2013-04-03 21:37:00,
2013-04-03 17:42:00,53.1,27.5,30.15,SW,218,0.0,3.0,37,0.00,,,0.00,153.0,meteohub,2013-04-03 21:42:00,
2013-04-03 17:47:00,52.9,26.6,30.15,South,178,1.0,3.0,36,0.00,,,0.00,160.0,meteohub,2013-04-03 21:47:00,
2013-04-03 17:52:00,52.7,25.9,30.15,SSW,211,1.0,3.0,35,0.00,,,0.00,148.0,meteohub,2013-04-03 21:52:00,
2013-04-03 17:57:00,52.5,26.2,30.14,SSW,211,0.0,3.0,36,0.00,,,0.00,134.0,meteohub,2013-04-03 21:57:00,
2013-04-03 18:02:00,52.5,26.2,30.14,SSW,211,1.0,3.0,36,0.00,,,0.00,127.0,meteohub,2013-04-03 22:02:00,
2013-04-03 18:07:00,52.5,27.0,30.14,SSW,211,0.0,2.0,37,0.00,,,0.00,123.0,meteohub,2013-04-03 22:07:00,
2013-04-03 18:13:00,52.3,26.8,30.14,SSW,211,0.0,3.0,37,0.00,,,0.00,113.0,meteohub,2013-04-03 22:13:00,
2013-04-03 18:18:00,52.3,26.8,30.14,SSW,199,3.0,3.0,37,0.00,,,0.00,104.0,meteohub,2013-04-03 22:18:00,
2013-04-03 18:23:00,52.2,26.6,30.14,South,190,1.0,3.0,37,0.00,,,0.00,97.0,meteohub,2013-04-03 22:23:00,
2013-04-03 18:28:00,52.0,27.1,30.14,South,190,1.0,3.0,38,0.00,,,0.00,88.0,meteohub,2013-04-03 22:28:00,
2013-04-03 18:33:00,51.6,26.2,30.14,SSW,205,1.0,3.0,37,0.00,,,0.00,79.0,meteohub,2013-04-03 22:33:00,
2013-04-03 18:38:00,51.4,26.6,30.14,SSW,205,0.0,3.0,38,0.00,,,0.00,67.0,meteohub,2013-04-03 22:38:00,
2013-04-03 18:43:00,51.4,27.3,30.14,SSW,205,0.0,3.0,39,0.00,,,0.00,60.0,meteohub,2013-04-03 22:43:00,
2013-04-03 18:48:00,51.3,27.1,30.14,SSW,205,1.0,3.0,39,0.00,,,0.00,56.0,meteohub,2013-04-03 22:48:00,
2013-04-03 18:53:00,51.1,27.0,30.14,SSW,205,1.0,2.0,39,0.00,,,0.00,49.0,meteohub,2013-04-03 22:53:00,
2013-04-03 18:58:00,50.7,26.1,30.14,SSW,205,0.0,2.0,38,0.00,,,0.00,39.0,meteohub,2013-04-03 22:58:00,
2013-04-03 19:03:00,50.5,27.1,30.14,SSE,152,0.0,3.0,40,0.00,,,0.00,30.0,meteohub,2013-04-03 23:03:00,
2013-04-03 19:09:00,50.4,27.5,30.15,SSW,202,0.0,3.0,41,0.00,,,0.00,23.0,meteohub,2013-04-03 23:09:00,
2013-04-03 19:14:00,50.2,28.0,30.15,SSW,202,2.0,3.0,42,0.00,,,0.00,19.0,meteohub,2013-04-03 23:14:00,
2013-04-03 19:19:00,49.8,26.4,30.15,SSW,202,1.0,3.0,40,0.00,,,0.00,16.0,meteohub,2013-04-03 23:19:00,
2013-04-03 19:24:00,49.6,26.2,30.15,SSW,202,0.0,3.0,40,0.00,,,0.00,12.0,meteohub,2013-04-03 23:24:00,
2013-04-03 19:29:00,49.5,26.8,30.16,SSW,202,0.0,3.0,41,0.00,,,0.00,7.0,meteohub,2013-04-03 23:29:00,
2013-04-03 19:34:00,49.3,27.7,30.15,SSW,202,0.0,2.0,43,0.00,,,0.00,5.0,meteohub,2013-04-03 23:34:00,
2013-04-03 19:39:00,49.1,27.0,30.15,SSW,202,1.0,1.0,42,0.00,,,0.00,0.0,meteohub,2013-04-03 23:39:00,
2013-04-03 19:44:00,48.9,26.8,30.15,SSW,202,0.0,2.0,42,0.00,,,0.00,0.0,meteohub,2013-04-03 23:44:00,
2013-04-03 19:49:00,48.7,26.6,30.16,SSW,202,0.0,2.0,42,0.00,,,0.00,0.0,meteohub,2013-04-03 23:49:00,
2013-04-03 19:55:00,48.6,27.1,30.16,SSW,202,0.0,1.0,43,0.00,,,0.00,0.0,meteohub,2013-04-03 23:55:00,
2013-04-03 20:00:00,48.6,26.4,30.16,SSW,202,0.0,1.0,42,0.00,,,0.00,0.0,meteohub,2013-04-04 00:00:00,
2013-04-03 20:05:00,48.4,27.0,30.16,SSW,202,0.0,1.0,43,0.00,,,0.00,0.0,meteohub,2013-04-04 00:05:00,
2013-04-03 20:10:00,48.0,26.6,30.16,SSW,202,0.0,0.0,43,0.00,,,0.00,0.0,meteohub,2013-04-04 00:10:00,
2013-04-03 20:15:00,47.8,26.4,30.16,SSW,202,0.0,0.0,43,0.00,,,0.00,0.0,meteohub,2013-04-04 00:15:00,
2013-04-03 20:20:00,47.8,27.0,30.17,SSW,202,0.0,1.0,44,0.00,,,0.00,0.0,meteohub,2013-04-04 00:20:00,
2013-04-03 20:25:00,47.8,26.4,30.17,SSW,202,0.0,1.0,43,0.00,,,0.00,0.0,meteohub,2013-04-04 00:25:00,
2013-04-03 20:30:00,47.7,26.8,30.17,SSW,202,0.0,0.0,44,0.00,,,0.00,0.0,meteohub,2013-04-04 00:30:00,
2013-04-03 20:35:00,47.7,26.8,30.18,SSW,202,0.0,0.0,44,0.00,,,0.00,0.0,meteohub,2013-04-04 00:35:00,
2013-04-03 20:40:00,47.5,26.6,30.18,SSW,202,0.0,0.0,44,0.00,,,0.00,0.0,meteohub,2013-04-04 00:40:00,
2013-04-03 20:45:00,47.3,26.4,30.19,SSW,202,0.0,0.0,44,0.00,,,0.00,0.0,meteohub,2013-04-04 00:45:00,
2013-04-03 20:50:00,47.1,26.2,30.19,SSW,202,0.0,1.0,44,0.00,,,0.00,0.0,meteohub,2013-04-04 00:50:00,
2013-04-03 20:56:00,46.9,26.8,30.19,SSW,202,1.0,2.0,45,0.00,,,0.00,0.0,meteohub,2013-04-04 00:56:00,
2013-04-03 21:01:00,46.9,26.8,30.19,SSW,202,0.0,2.0,45,0.00,,,0.00,0.0,meteohub,2013-04-04 01:01:00,
2013-04-03 21:06:00,46.9,27.3,30.19,SSW,202,0.0,2.0,46,0.00,,,0.00,0.0,meteohub,2013-04-04 01:06:00,
2013-04-03 21:11:00,46.8,27.7,30.18,SSW,202,0.0,2.0,47,0.00,,,0.00,0.0,meteohub,2013-04-04 01:11:00,
2013-04-03 21:16:00,46.8,27.1,30.19,SSW,202,0.0,1.0,46,0.00,,,0.00,0.0,meteohub,2013-04-04 01:16:00,
2013-04-03 21:21:00,46.6,27.5,30.19,SSW,202,0.0,2.0,47,0.00,,,0.00,0.0,meteohub,2013-04-04 01:21:00,
2013-04-03 21:26:00,46.6,27.0,30.19,SSW,202,0.0,2.0,46,0.00,,,0.00,0.0,meteohub,2013-04-04 01:26:00,
2013-04-03 21:31:00,46.4,25.7,30.20,SSW,202,0.0,2.0,44,0.00,,,0.00,0.0,meteohub,2013-04-04 01:31:00,
2013-04-03 21:37:00,46.2,26.1,30.19,SSE,157,0.0,2.0,45,0.00,,,0.00,0.0,meteohub,2013-04-04 01:37:00,
2013-04-03 21:42:00,46.2,25.5,30.19,ESE,121,0.0,2.0,44,0.00,,,0.00,0.0,meteohub,2013-04-04 01:42:00,
2013-04-03 21:47:00,46.2,25.5,30.20,ESE,105,1.0,2.0,44,0.00,,,0.00,0.0,meteohub,2013-04-04 01:47:00,
2013-04-03 21:52:00,46.0,25.9,30.20,ESE,105,0.0,2.0,45,0.00,,,0.00,0.0,meteohub,2013-04-04 01:52:00,
2013-04-03 21:57:00,46.0,25.9,30.21,South,176,0.0,2.0,45,0.00,,,0.00,0.0,meteohub,2013-04-04 01:57:00,
2013-04-03 22:02:00,46.0,25.9,30.21,South,176,0.0,3.0,45,0.00,,,0.00,0.0,meteohub,2013-04-04 02:02:00,
2013-04-03 22:07:00,45.9,25.2,30.21,South,176,2.0,3.0,44,0.00,,,0.00,0.0,meteohub,2013-04-04 02:07:00,
2013-04-03 22:12:00,45.9,25.7,30.22,South,176,1.0,2.0,45,0.00,,,0.00,0.0,meteohub,2013-04-04 02:12:00,
2013-04-03 22:17:00,45.9,25.7,30.22,South,176,0.0,2.0,45,0.00,,,0.00,0.0,meteohub,2013-04-04 02:17:00,
2013-04-03 22:22:00,45.9,25.2,30.22,South,176,0.0,2.0,44,0.00,,,0.00,0.0,meteohub,2013-04-04 02:22:00,
2013-04-03 22:27:00,45.9,25.7,30.22,South,176,1.0,1.0,45,0.00,,,0.00,0.0,meteohub,2013-04-04 02:27:00,
2013-04-03 22:32:00,45.7,26.1,30.22,South,176,0.0,2.0,46,0.00,,,0.00,0.0,meteohub,2013-04-04 02:32:00,
2013-04-03 22:37:00,45.7,25.5,30.22,SSW,192,0.0,2.0,45,0.00,,,0.00,0.0,meteohub,2013-04-04 02:37:00,
2013-04-03 22:43:00,45.7,25.5,30.22,SSW,192,0.0,2.0,45,0.00,,,0.00,0.0,meteohub,2013-04-04 02:43:00,
2013-04-03 22:47:00,45.7,25.5,30.22,SSW,200,0.0,2.0,45,0.00,,,0.00,0.0,meteohub,2013-04-04 02:47:00,
2013-04-03 22:53:00,45.7,25.5,30.22,South,190,5.0,5.0,45,0.00,,,0.00,0.0,meteohub,2013-04-04 02:53:00,
2013-04-03 22:58:00,45.7,25.5,30.22,East,92,1.0,6.0,45,0.00,,,0.00,0.0,meteohub,2013-04-04 02:58:00,
2013-04-03 23:03:00,45.5,25.3,30.22,SSE,167,1.0,6.0,45,0.00,,,0.00,0.0,meteohub,2013-04-04 03:03:00,
2013-04-03 23:08:00,45.5,25.3,30.22,ESE,117,0.0,6.0,45,0.00,,,0.00,0.0,meteohub,2013-04-04 03:08:00,
2013-04-03 23:13:00,45.5,25.3,30.22,ESE,117,0.0,3.0,45,0.00,,,0.00,0.0,meteohub,2013-04-04 03:13:00,
2013-04-03 23:18:00,45.5,25.3,30.22,ESE,117,0.0,3.0,45,0.00,,,0.00,0.0,meteohub,2013-04-04 03:18:00,
2013-04-03 23:23:00,45.5,25.3,30.22,ESE,117,0.0,1.0,45,0.00,,,0.00,0.0,meteohub,2013-04-04 03:23:00,
2013-04-03 23:28:00,45.3,25.7,30.22,ESE,117,1.0,1.0,46,0.00,,,0.00,0.0,meteohub,2013-04-04 03:28:00,
2013-04-03 23:33:00,45.3,25.2,30.22,NW,305,0.0,1.0,45,0.00,,,0.00,0.0,meteohub,2013-04-04 03:33:00,
2013-04-03 23:38:00,45.3,25.2,30.22,SE,130,0.0,3.0,45,0.00,,,0.00,0.0,meteohub,2013-04-04 03:38:00,
2013-04-03 23:43:00,45.3,25.7,30.22,ESE,102,0.0,4.0,46,0.00,,,0.00,0.0,meteohub,2013-04-04 03:43:00,
2013-04-03 23:48:00,45.1,26.1,30.22,East,98,0.0,4.0,47,0.00,,,0.00,0.0,meteohub,2013-04-04 03:48:00,
2013-04-03 23:53:00,45.1,25.5,30.22,ENE,72,2.0,4.0,46,0.00,,,0.00,0.0,meteohub,2013-04-04 03:53:00,
2013-04-03 23:59:00,45.1,26.1,30.21,NE,48,1.0,3.0,47,0.00,,,0.00,0.0,meteohub,2013-04-04 03:59:00,